Reflectivity
-20 -20 -20 -20 -20 -20 -20 -20 -20 -20 -20 -20 -20 -20 -20 -20 -20 -20 -20 -20 -20 -17 -9 4 8 -1 -20 -20 -20 -20 -20 -20 -20 -20 -20 -20 -20 -20 -20 -20 -20 -20 -20 -20 -20 -20 -20 -20 -20
-18 -20 -20 -20 -20 -20 -20 -20 -20 -20 -20 -20 -20 -20 -20 -20 -20 -3 -9 5 -20 -10 -1 8 3 -2 -3 -20 -20 -20 -20 -20 -20 -20 -20 -20 -20 -20 -20 -20 -20 -20 -20 -20 -20 -20 -20 -20 -20
-20 -20 -20 -20 -20 -20 -20 -20 -20 -20 -20 -20 -20 -20 -20 -20 -20 -20 -20 -7 -11 -11 -7 -12 -7 -20 -20 -20 -20 -20 -20 -20 -20 -20 -20 -20 -20 -20 -20 -20 -20 -20 -20 -20 -20 -20 -20 -20 -20
-20 -20 -20 -20 -20 -18 -20 -20 -20 -20 -20 -20 -20 -20 -20 -20 -20 -20 2 -15 -15 -2 5 7 -20 -20 -20 -20 -20 -20 -20 -20 -20 -20 -20 -20 -20 -20 -20 -20 -20 -20 -20 -20 -20 -20 -20 -20 -20
-20 -20 -20 -20 2 -16 -20 -20 -20 -20 -20 -20 -20 -20 -20 -18 -20 -20 -6 -1 -20 1 -3 -5 -20 -20 -20 -20 -20 -20 -20 -20 -20 -20 -20 -20 -20 -20 -20 -20 -20 -20 -20 -20 -20 -20 -20 -20 -20
-20 -20 -20 -20 17 3 -20 -20 -20 -20 -20 -20 -20 -20 -20 -20 -19 -2 1 -20 -13 10 -1 -1 -20 -20 -20 -20 -20 -20 -20 -20 -20 -20 -20 -20 -20 -20 -20 -20 -20 -20 -20 -20 -20 -20 -20 -3 -1
-20 -20 -20 -20 26 16 -13 -20 -20 -20 -20 -20 -20 -20 3 10 -20 -8 -19 -3 16 3 -8 -15 -6 -20 -20 -20 -20 -20 -20 -20 -20 -20 -20 -20 -20 -20 -20 -20 -20 -20 -20 -20 -20 -20 -4 14 3
-20 -20 -20 -20 10 -1 -2 -20 -20 -20 -20 -20 -20 -20 -20 4 1 -20 -4 -1 7 11 7 -20 -20 -20 -20 -20 -20 -20 -20 -20 -20 -20 -20 -20 -20 -20 -20 -20 -20 -20 -20 -20 -20 -20 -20 -15 11
-20 -20 -20 -20 -3 -3 -19 -20 -20 -20 -20 -20 -20 -20 -20 -12 -20 11 3 23 16 11 6 6 -20 -20 -20 -20 -20 -20 -20 -20 -20 -20 -20 -20 -20 -20 -20 -20 -20 -20 -20 -20 -20 -20 -20 -20 10
-20 -20 -20 -12 18 12 -18 -20 -20 26 -20 -14 -20 -20 -20 9 10 -1 14 3 6 4 8 9 -4 -20 -20 -20 -20 -20 -20 -20 -20 -20 -20 -20 -20 -20 -20 -20 -20 -20 -20 -20 -12 -20 -20 -20 -20
-20 -20 -18 9 23 24 2 -19 -20 -20 -13 -20 -19 15 3 7 3 -14 3 4 -9 -7 -18 -20 -20 -20 -20 -20 -20 -20 -20 -20 -20 -20 -20 -20 -20 -20 -20 -20 -20 -20 -20 2 -19 -20 -20 -20 -20
-20 -20 -20 17 30 18 -14 -10 -20 -20 -20 -20 -14 -6 9 7 20 3 -20 -6 -0 -11 -2 -20 -20 -20 -20 -20 -20 -20 -20 -20 -20 -20 -20 -20 -20 -20 -20 -20 -20 -20 -20 -20 -20 -20 -20 -20 -20
-20 -12 14 20 23 7 -20 0 -1 -20 -20 -20 -20 -20 13 41 33 35 14 15 -18 -18 -20 -20 -20 -20 -20 -20 -20 -20 -20 -20 -20 -20 -20 -20 -20 -20 -20 -20 -20 -20 -20 -20 -20 -20 -20 -20 -20
-10 -5 7 21 8 -3 -20 0 -18 -20 -4 -20 -20 -20 -5 29 22 17 19 -6 -2 -20 -20 -20 -20 -20 -20 -20 -20 -20 -20 -20 -20 -20 -20 -20 -20 -20 -20 -20 -20 -20 -11 -20 4 4 -15 -20 -20
-20 -20 -5 7 3 -1 -19 -20 -20 -20 -18 -20 -20 -20 -20 -1 18 5 33 29 -6 -20 -20 -20 -20 -20 -20 -20 -20 -20 -20 -20 -20 -20 -20 -20 -20 -20 -20 -20 -20 -20 -20 -20 -20 -20 -20 -20 -20
-20 -20 -17 -8 -9 -17 -20 -20 -20 -20 -20 -11 -20 -20 -20 4 -4 9 4 -7 -1 -20 -20 -20 -20 -20 -20 -20 -20 -20 -20 -20 -20 -20 -20 -20 -20 -20 -20 -20 -20 -20 -20 -20 -20 -20 -20 -20 -20
-20 -20 -20 -20 -20 -20 -20 -20 -20 -20 -20 -20 -20 -20 -15 -20 -4 -6 31 21 -11 -20 -20 -20 -20 -20 2 -20 -20 -20 -20 -20 -20 -20 -20 -20 -20 -20 -20 -20 -20 -20 -20 -20 -20 -18 -20 -20 -20
-20 -20 -20 -20 -20 -20 -20 -20 -20 -20 -20 -20 -20 -4 -20 -20 -20 -20 -2 33 -3 -20 -20 -20 -20 -20 -20 -20 -20 -20 -20 -20 -20 -20 -20 -20 -20 -20 -20 -20 -20 -20 -20 -19 -9 -20 -20 -20 -20
-20 -20 -20 -8 -1 -20 -20 -20 -20 -1 -20 -20 -20 -20 -12 -20 4 11 12 -20 -20 -20 -20 -20 -20 -20 -20 -20 -20 -20 -20 -20 -20 -20 -20 -20 -20 -20 -20 -20 -20 -20 -10 -4 -4 -10 -20 -20 -9
-20 -20 -20 -20 6 -19 -20 -20 -20 -20 -20 -20 -20 -12 -4 5 9 14 -14 -20 -20 -20 -20 -20 -20 -20 -20 -20 -20 -20 -20 -20 -20 -20 -20 -20 -20 -20 -20 -20 -20 -20 -20 -20 -15 -15 -11 6 -4
-20 -20 -20 -20 -6 -6 -20 -20 5 -18 -20 -14 -15 -6 -18 -9 -20 5 10 -20 -20 -20 -20 -20 -20 -20 -20 -20 -20 -20 -20 -20 -20 -20 -20 -20 -20 -20 -20 -17 -18 -10 -3 -15 -2 -19 -20 -20 -20
-20 -20 -19 -20 -20 -14 -20 -20 -11 -17 -20 -3 -9 -20 -20 -0 -20 -20 -10 -20 -20 -20 -20 -20 -20 -20 -20 -20 -20 -20 -20 -20 -20 -20 -20 -20 -20 -20 -20 -2 -6 -14 -17 -20 -20 -20 -20 -20 -20
-20 -20 -4 -20 -20 -20 -20 -20 -20 -20 -15 -20 -20 -20 -20 -20 -18 -20 -18 34 -7 -20 -20 -20 -20 -20 -20 -20 -20 -20 -20 -20 -20 -20 -20 -20 -20 -20 -20 -20 -20 -20 -20 -20 -20 -20 -20 -20 -20
-20 -20 -14 -5 -20 -20 -20 -20 -20 -8 -20 -20 -20 -20 -20 -19 3 -8 14 -1 23 -20 -20 -20 -20 -20 -20 -20 -20 -20 -20 -20 -20 -20 -20 -20 -20 -20 -20 -20 -20 -20 -20 -20 -20 -20 -20 -20 -20
-20 -20 -20 -6 -20 -20 -20 -20 -20 -20 -20 -20 -20 -20 -20 -20 6 5 6 -20 -20 -20 -20 -20 -20 -20 -20 -20 -20 -20 -20 -20 -20 -20 -20 -20 -20 -20 -20 -20 -20 -20 -20 -20 -20 -20 -20 -20 -20
-20 -20 -20 -9 -18 -20 -20 -20 -20 -20 -20 -20 -20 -20 -20 -20 -20 -20 -20 -20 -20 -20 -20 -20 -20 -20 -20 -20 -20 -20 -20 -20 -20 -20 -20 -20 -20 -20 -20 -20 -20 -20 -20 -20 -20 -20 -20 -20 -20
-20 -20 -20 -19 -20 -20 -20 -20 -20 -20 -20 -20 -20 -20 -20 -20 -20 -20 -20 -11 -20 -20 -20 -20 -20 -20 -20 -20 -20 -20 -20 -20 -20 -20 -20 -20 -20 -20 -20 -20 -20 -20 -20 -20 -20 -20 -20 -20 -20
-20 -20 -20 -20 -20 -20 -20 -20 -20 -20 -20 -20 -20 -20 -20 -20 -20 -20 -20 -20 -20 -20 -20 -20 -20 -20 -20 -20 -20 -20 -20 -20 -20 -20 -20 -20 -20 -20 -20 -20 -20 -20 -20 -20 -20 -20 -20 -20 -20
-20 -20 -20 -20 -20 -20 -20 -20 -20 -20 -20 -20 -20 -20 -20 -20 -20 -20 -20 -20 -20 -20 -20 -20 -20 -20 -20 -20 -20 -20 -20 -20 -20 -20 -20 -20 -20 -20 -20 -20 -20 -20 -20 -20 -20 -20 -20 -20 -20
-20 -20 -20 -20 -20 -20 -20 -20 -20 -20 -20 -20 -20 -20 -20 -20 -20 -20 -20 -20 -20 -20 -20 -20 -20 -20 -20 -20 -20 -20 -20 -20 -20 -20 -20 -20 -20 -20 -20 -20 -20 -20 -20 -20 -20 -20 -20 -20 -20
Wind_Speed
4 5 4 4 2 5 3 8 3 5 3 3 9 5 8 3 6 5 3 3 14 11 9 11 14 14 14 15 15 14 14 15 15 14 12 13 13 14 14 13 13 14 16 17 16 14 14 12 10
3 2 5 2 4 1 6 6 6 7 2 9 9 4 4 3 3 9 6 8 16 13 9 10 15 15 14 14 14 14 15 14 14 13 14 13 14 14 14 13 12 13 15 16 16 13 12 11 11
2 3 4 3 3 6 6 4 4 2 4 2 6 5 4 7 9 8 11 16 17 13 8 10 14 14 14 13 13 13 13 12 12 12 13 13 12 13 13 11 12 13 14 15 15 12 11 10 10
3 4 4 3 7 5 5 3 7 2 4 7 4 9 5 4 12 7 17 15 15 12 7 10 12 13 13 13 13 12 11 10 11 11 11 12 12 11 11 10 11 13 13 14 14 12 10 10 12
4 3 1 3 5 4 5 2 3 1 2 3 4 4 6 3 13 19 16 14 14 12 13 10 11 12 12 13 13 12 11 10 9 10 9 10 11 11 9 9 10 11 12 13 13 12 13 14 15
3 3 3 6 9 4 7 8 4 5 3 5 5 4 4 11 19 15 16 15 12 13 14 10 12 12 12 12 11 10 10 10 9 9 9 10 9 9 8 8 9 10 10 10 13 14 15 17 18
7 5 7 8 5 4 6 6 6 8 8 4 11 4 4 12 17 16 18 12 11 10 11 9 7 10 12 11 11 10 10 10 9 9 9 9 8 8 7 7 8 8 8 9 12 14 16 18 18
5 5 7 6 7 7 5 2 2 7 3 6 6 8 7 12 20 18 13 11 11 10 10 11 8 7 6 5 11 11 10 9 9 8 8 8 8 7 7 7 6 7 9 10 14 15 17 19 18
4 3 7 16 9 3 2 3 3 0 10 1 7 7 9 21 21 14 13 9 9 7 7 9 9 9 5 6 7 8 9 8 7 7 7 6 4 4 5 5 6 8 8 12 16 16 17 18 17
6 5 11 6 7 3 2 3 1 4 2 3 7 12 20 21 17 15 13 12 9 9 8 7 8 9 5 5 6 5 5 4 3 4 3 2 3 3 4 4 5 6 11 15 16 16 15 11 6
7 8 8 5 6 1 2 2 2 11 1 5 14 17 16 17 15 13 10 10 9 9 6 10 8 6 6 5 4 3 3 3 3 5 5 4 3 3 3 3 3 3 10 7 6 8 6 7 6
4 9 3 7 4 2 3 4 3 2 3 18 19 21 16 12 11 9 12 11 10 10 11 8 7 6 5 3 3 4 3 3 3 3 5 4 3 3 4 3 4 3 3 6 5 5 8 9 8
6 2 7 5 5 5 3 2 5 1 7 17 22 25 21 4 13 13 14 13 13 13 13 8 7 6 5 5 4 4 4 4 4 4 4 3 4 4 4 4 3 3 4 5 5 7 7 7 9
6 7 6 6 15 9 6 2 2 6 6 15 22 23 23 24 24 17 16 18 14 16 13 8 7 7 6 5 5 4 4 4 4 4 4 5 4 4 4 4 3 4 4 5 5 7 8 6 7
3 2 11 18 7 5 12 4 5 7 9 17 16 16 17 23 27 23 21 19 18 13 10 8 9 9 8 7 6 5 4 4 4 4 6 5 5 4 4 3 4 3 4 9 6 9 8 7 7
7 3 9 5 14 7 8 8 6 13 12 15 12 6 10 13 16 15 14 16 12 12 12 11 9 9 9 8 5 4 4 4 4 4 4 6 5 4 4 3 3 3 4 6 7 6 7 6 6
4 6 16 2 13 8 8 5 7 18 14 14 6 7 11 11 11 12 12 13 13 13 14 11 12 11 10 8 5 5 6 4 4 4 4 6 6 5 4 3 3 4 4 5 6 4 7 7 6
6 4 6 12 7 6 8 4 14 19 17 14 8 9 13 17 16 13 12 11 10 10 11 12 9 10 9 7 6 4 4 4 3 4 4 6 5 6 4 4 4 3 6 5 5 6 3 6 8
7 5 5 6 8 8 14 9 15 19 13 10 11 13 17 17 11 12 12 12 10 9 12 12 13 9 9 5 4 4 4 3 3 4 6 6 5 6 6 4 5 4 5 5 7 6 8 4 8
9 5 4 4 9 6 10 10 17 18 20 21 19 18 18 14 12 12 12 12 13 12 11 11 11 10 6 4 3 3 3 4 3 3 5 5 5 6 6 5 5 4 4 5 4 3 4 3 2
17 11 4 3 6 5 10 2 13 13 7 9 8 12 10 13 13 13 14 14 12 13 13 12 12 10 7 8 7 4 5 4 2 3 3 3 5 5 6 6 4 5 3 3 2 3 6 4 2
18 11 4 2 2 6 3 5 12 14 13 13 12 15 17 14 13 14 15 15 14 12 11 10 10 10 8 8 7 7 4 4 2 3 2 3 6 5 5 7 5 5 4 4 2 3 3 5 4
9 10 12 3 2 3 3 6 5 16 15 17 16 17 18 16 15 16 16 14 12 10 11 11 11 9 7 7 7 6 6 4 3 3 5 5 5 6 5 7 6 6 4 4 4 4 5 3 4
6 9 5 3 4 3 9 6 6 17 23 18 17 19 21 17 17 14 12 11 9 7 9 10 13 9 9 7 8 9 10 8 6 5 4 3 4 4 6 6 6 6 5 5 4 5 6 5 6
9 7 4 2 1 9 8 6 7 20 22 24 26 22 20 18 17 15 17 15 13 13 12 11 13 11 10 9 8 8 9 8 8 7 5 6 4 3 3 4 6 4 5 6 5 6 7 5 5
7 12 6 9 12 7 4 7 7 25 27 27 23 23 20 20 20 20 19 17 17 16 14 14 14 12 11 9 8 7 8 5 4 5 5 4 5 4 4 5 5 6 6 6 6 5 6 7 6
7 8 8 4 2 6 6 3 3 13 22 20 20 15 18 20 21 22 19 19 18 17 17 16 14 11 12 10 8 7 7 7 6 6 5 3 6 5 6 6 6 6 6 7 7 6 6 7 5
9 8 5 2 5 5 2 4 7 8 19 21 18 18 20 19 18 18 18 18 17 16 14 14 14 13 12 10 9 8 8 7 7 6 7 6 6 6 7 7 7 6 6 6 7 5 5 8 4
4 4 4 5 4 6 3 7 7 11 16 20 19 21 21 21 20 20 19 17 16 14 14 14 14 13 12 11 9 9 9 8 8 6 6 6 6 7 6 7 7 6 6 6 7 6 6 8 6
8 10 6 7 5 2 5 6 2 8 13 18 18 18 19 22 21 18 18 17 16 15 14 15 15 14 13 12 11 10 10 9 9 7 7 7 7 6 7 7 7 7 6 6 7 7 6 7 7
Wind_Direction
341 320 97 44 59 68 256 261 249 245 247 203 140 161 158 72 156 205 127 151 133 131 139 136 136 134 131 125 119 116 117 117 115 109 105 102 100 96 90 88 87 87 85 84 81 76 70 61 50
26 300 57 81 110 129 267 251 240 234 170 99 81 85 92 112 85 121 121 137 127 137 136 139 136 135 128 125 123 122 121 119 115 111 105 105 103 101 97 92 89 89 88 85 82 75 70 61 46
19 19 89 127 158 180 224 236 254 48 142 92 113 57 97 125 120 138 140 140 136 134 130 144 135 132 130 128 125 120 116 117 116 115 110 107 104 101 99 91 91 88 87 85 87 79 68 59 48
83 11 41 124 227 240 217 42 140 53 57 44 96 87 76 231 141 145 142 130 133 136 127 133 135 132 130 125 117 113 113 112 113 113 114 111 106 100 95 85 88 89 86 84 85 83 74 65 74
48 50 193 235 249 254 247 192 170 14 102 79 5 117 102 10 123 141 137 140 139 141 147 141 132 128 125 123 122 118 112 105 105 107 108 111 111 106 98 89 87 88 85 85 86 83 75 82 77
83 109 119 230 236 225 246 186 199 164 194 126 73 95 124 138 139 144 143 144 142 145 147 141 133 124 119 116 116 113 109 105 103 103 107 109 106 102 96 92 90 86 86 85 86 89 85 88 85
150 136 201 231 223 254 242 175 202 177 164 188 135 103 101 156 149 145 145 128 136 140 145 137 120 118 117 117 111 107 105 111 114 111 109 107 103 101 100 98 94 92 92 91 95 96 91 90 88
144 132 187 225 192 233 243 208 341 155 190 108 132 161 182 166 153 146 130 132 138 146 148 145 123 111 98 105 114 117 117 115 118 120 121 120 116 114 108 90 87 91 95 99 103 101 96 92 90
118 153 192 224 160 205 282 57 63 120 130 63 165 151 151 153 149 137 134 137 140 144 144 144 133 137 112 108 114 102 111 122 129 124 128 119 121 117 87 99 94 94 96 103 107 100 96 91 83
154 187 202 219 163 191 136 51 120 114 142 50 84 91 127 145 146 144 149 150 149 150 143 136 145 143 134 115 106 98 95 92 97 100 101 63 65 76 97 71 71 90 100 110 108 99 87 75 69
190 197 201 184 132 179 323 31 271 135 122 180 142 129 129 140 137 148 155 158 162 150 158 157 142 142 126 124 113 97 111 110 95 105 105 85 69 52 46 60 39 73 104 116 95 89 83 86 85
186 229 196 156 106 185 197 122 69 272 247 140 130 126 123 127 141 160 160 161 154 164 163 148 138 128 119 103 106 112 102 110 113 102 112 117 104 105 85 62 44 75 92 95 87 88 87 77 77
223 212 196 217 169 184 127 98 142 76 127 135 134 135 121 150 179 191 179 169 167 170 161 154 139 128 112 97 92 89 75 58 42 50 64 101 108 106 87 79 68 80 88 103 103 96 92 87 83
206 230 236 180 214 180 127 153 121 171 203 147 144 156 161 177 175 177 180 175 171 168 163 148 139 114 106 94 90 85 72 69 56 44 33 57 76 99 99 89 79 79 95 89 103 107 102 91 96
190 190 234 235 165 183 120 167 234 157 177 171 181 176 174 175 166 181 183 172 165 165 140 134 114 111 110 104 98 91 89 85 73 74 65 59 62 73 86 91 88 95 101 103 94 102 98 101 95
201 159 225 195 167 189 159 208 220 178 187 191 194 174 145 160 168 176 163 167 159 144 140 134 123 114 115 114 104 99 90 84 84 76 70 58 58 65 76 96 92 108 104 113 115 113 101 90 94
215 207 217 165 186 145 166 176 190 176 193 198 189 169 163 153 151 158 162 163 154 142 135 125 123 129 119 104 95 88 92 83 83 78 79 75 72 63 70 80 91 114 105 96 116 84 117 114 96
190 198 190 200 184 129 156 178 170 179 192 191 186 190 177 181 170 160 148 152 141 134 121 120 114 119 113 107 102 81 71 50 44 76 81 89 88 82 82 72 55 107 119 115 120 111 73 121 109
182 197 194 186 197 124 184 161 183 183 195 191 199 199 190 185 157 145 142 141 136 130 129 137 132 135 132 130 113 94 102 86 57 58 70 75 84 82 72 57 76 7 116 130 126 109 112 79 123
257 218 220 219 166 119 176 190 189 188 201 194 188 195 191 174 152 148 148 152 157 155 146 140 136 147 144 116 117 127 137 89 95 81 67 84 83 96 98 93 82 89 106 103 100 101 107 103 328
221 220 167 147 116 53 124 47 172 203 222 192 191 204 189 187 160 160 168 164 159 159 161 152 151 145 134 125 119 92 84 69 64 47 52 53 81 79 90 85 89 89 51 94 70 121 123 142 41
212 202 188 250 76 173 199 186 191 193 204 199 184 199 193 175 177 179 171 174 172 166 153 142 145 141 144 151 135 138 127 134 161 123 94 60 55 61 70 84 78 71 82 100 134 160 152 135 136
208 161 197 203 183 120 211 109 212 178 203 206 192 197 203 186 182 178 183 176 167 159 152 148 145 142 145 149 135 127 118 113 121 101 106 90 62 67 72 81 86 84 77 82 111 127 134 100 123
169 143 144 110 137 256 199 136 244 184 199 202 208 202 201 189 188 175 167 152 166 150 146 146 151 152 151 143 145 147 139 142 130 128 117 100 80 54 66 87 90 90 89 85 84 75 76 88 87
181 133 129 149 115 225 167 190 223 194 195 200 205 203 194 190 181 174 173 170 171 171 163 159 162 160 159 153 153 152 144 144 150 148 151 138 107 74 86 88 89 89 96 86 89 87 79 72 88
192 201 156 166 197 190 111 205 240 188 192 206 208 199 185 184 186 186 183 176 178 175 172 171 170 164 161 154 154 145 140 139 147 147 145 142 120 130 114 103 106 103 96 90 80 76 78 79 78
224 193 213 107 54 106 200 240 349 180 190 207 211 187 191 189 188 187 181 182 178 178 181 176 172 164 163 158 149 148 143 145 152 143 136 150 122 125 130 121 110 107 104 100 93 90 90 86 80
163 169 166 359 140 178 234 196 191 176 193 195 197 188 192 191 185 182 184 184 183 181 175 172 172 168 159 152 157 160 154 143 144 142 154 156 131 128 136 127 116 110 102 99 97 95 91 95 79
139 168 156 133 135 175 151 249 218 184 196 186 192 190 185 184 183 183 181 180 177 173 170 170 169 163 164 159 158 148 149 147 145 146 155 152 128 139 142 137 132 127 118 112 104 99 102 100 98
161 179 147 165 236 298 141 282 270 235 190 184 188 184 184 183 183 178 174 167 171 169 167 174 175 167 165 160 157 156 146 146 148 152 165 149 143 153 150 140 130 127 126 122 121 122 126 123 113